Location: Oberkirch
(48.5323°N, 8.0787°E)
Time: 05:23:54
(UTC+00:00)

BlueWalker 3 - Pass Details

Date: 08 November 2025
Orbit: 455 x 462 km, 53.2° (Epoch: 10 December)

Event Time Altitude Azimuth Distance (km) Brightness Sun altitude
Exits shadow 05:26:06 13° 261° (W) 1,461 3.7 -10.0°
Maximum altitude 05:27:58 17° 226° (SW) 1,220 3.6 -9.7°
Drops below altitude 10° 05:30:26 10° 183° (S) 1,600 4.6 -9.3°
Sets 05:33:03 0° 163° (SSE) 2,467 5.9 -8.9°
